This demonstration page uses our WeatherBlox Daily Observations layout. Learn more.

Left ArrowRight Arrow

30.21309, -93.2044

Hourly Observations for January 26, 2022

Temp ( °F °C ) Dew Point ( °F °C ) Humidity (%) Winds ( mph kmh ) Pressure ( in mb ) Visibility ( mi km ) Precip ( " mm )
12:15 am 00:15 Clear 44 6.8 38 3.2 78 78 NNE 12 19 30.21 1023 10 16 0.00 0.00
12:35 am 00:35 Clear 44 6.4 36 2.4 76 76 NE 9 15 30.21 1023 10 16 0.00 0.00
12:55 am 00:55 Clear 43 6 35 1.9 75 75 NNE 7 11 30.22 1023 10 16 0.00 0.00
1:15 am 01:15 Clear 42 5.5 34 1 73 73 NNE 10 17 30.22 1023 10 16 0.00 0.00
1:35 am 01:35 Clear 41 5.2 32 -0.2 68 68 NNE 10 17 30.23 1024 10 16 0.00 0.00
1:55 am 01:55 Clear 41 5 31 -0.4 68 68 NNE 10 17 30.24 1024 10 16 0.00 0.00
2:15 am 02:15 Clear 40 4.6 31 -0.8 68 68 NNE 8 13 30.24 1024 10 16 0.00 0.00
2:35 am 02:35 Clear 40 4.4 30 -1 68 68 NNE 9 15 30.24 1024 10 16 0.00 0.00
2:55 am 02:55 Clear 40 4.2 30 -1.1 69 69 NNE 13 20 30.24 1024 10 16 0.00 0.00
3:15 am 03:15 Clear 39 3.8 30 -1.3 70 70 NNE 13 20 30.24 1024 10 16 0.00 0.00
3:35 am 03:35 Clear 38 3.6 29 -1.4 70 70 NNE 10 17 30.25 1024 10 16 0.00 0.00
3:55 am 03:55 Clear 38 3.3 29 -1.7 70 70 NNE 9 15 30.26 1025 10 16 0.00 0.00
4:15 am 04:15 Clear 37 3 28 -2.1 69 69 NNE 12 19 30.27 1025 10 16 0.00 0.00
4:35 am 04:35 Clear 37 2.7 27 -2.6 68 68 NNE 14 22 30.28 1025 10 16 0.00 0.00
4:55 am 04:55 Clear 37 2.5 27 -2.6 69 69 NNE 16 26 30.28 1025 10 16 0.00 0.00
5:15 am 05:15 Clear 36 2.3 27 -3 68 68 NNE 13 20 30.28 1025 10 16 0.00 0.00
5:35 am 05:35 Clear 36 2 26 -3.2 69 69 NNE 12 19 30.29 1026 10 16 0.00 0.00
6:00 am 06:00 Mostly Clear 36 2 27 -3 70 70 NNE 13 20 30.29 1026 10 16 0.00 0.00
6:47 am 06:47 Mostly Clear 34 1 25 -4 70 70 NNE 13 20 30.31 1026 10 16 0.00 0.00
7:50 am 07:50 Mostly Sunny 34 1 25 -4 70 70 NNE 15 24 30.32 1027 10 16 0.00 0.00
8:50 am 08:50 Mostly Sunny 36 2 25 -4 65 65 NNE 13 20 30.34 1027 10 16 0.00 0.00
9:55 am 09:55 Mostly Sunny 43 6 28 -2 57 57 NNE 13 20 30.35 1028 10 16 0.00 0.00
10:55 am 10:55 Mostly Sunny 45 7 25 -4 46 46 NNE 14 22 30.35 1028 10 16 0.00 0.00
11:55 am 11:55 Mostly Sunny 48 9 25 -4 40 40 NNE 14 22 30.34 1027 10 16 0.00 0.00
12:50 pm 12:50 Mostly Sunny 52 11 25 -4 35 35 NNE 14 22 30.29 1026 10 16 0.00 0.00
1:45 pm 13:45 Mostly Sunny 54 12 27 -3 35 35 NNE 8 13 30.26 1025 10 16 0.00 0.00
2:45 pm 14:45 Mostly Sunny 55 13 25 -4 31 31 NE 8 13 30.25 1024 10 16 0.00 0.00
3:47 pm 15:47 Mostly Sunny 55 13 25 -4 31 31 NE 9 15 30.24 1024 10 16 0.00 0.00
4:45 pm 16:45 Mostly Sunny 55 13 27 -3 33 33 NE 9 15 30.24 1024 10 16 0.00 0.00
5:50 pm 17:50 Mostly Clear 52 11 27 -3 38 38 ENE 6 9 30.26 1025 10 16 0.00 0.00
6:50 pm 18:50 Mostly Clear 46 8 28 -2 50 50 ENE 9 15 30.26 1025 10 16 0.00 0.00
7:50 pm 19:50 Mostly Clear 39 4 28 -2 65 65 E 6 9 30.26 1025 10 16 0.00 0.00
8:45 pm 20:45 Mostly Clear 39 4 32 0 75 75 Calm 30.28 1025 10 16 0.00 0.00
9:45 pm 21:45 Mostly Clear 41 5 30 -1 66 66 Calm 30.29 1026 10 16 0.00 0.00
10:15 pm 22:15 Clear 40 4.2 29 -1.4 67 67 NE 5 7 30.29 1026 10 16 0.00 0.00
10:35 pm 22:35 Clear 40 4.2 29 -1.7 66 66 NE 6 9 30.29 1026 10 16 0.00 0.00
10:55 pm 22:55 Clear 39 4 28 -2 65 65 NNE 8 13 30.29 1026 10 16 0.00 0.00
11:15 pm 23:15 Clear 39 3.9 27 -2.6 63 63 NE 8 13 30.29 1026 10 16 0.00 0.00
11:35 pm 23:35 Clear 39 3.7 27 -2.7 63 63 NE 8 13 30.29 1026 10 16 0.00 0.00
11:55 pm 23:55 Clear 38 3.5 27 -2.8 64 64 NE 7 11 30.29 1026 10 16 0.00 0.00

Powered by AerisWeather